Weather Service Report


789 
ASUS44 KOUN 051810
RWROK 

WEATHER ROUNDUP FOR OKLAHOMA
NATIONAL WEATHER SERVICE NORMAN OK
100 PM CDT THU MAY 05 2016

NOTE: "FAIR" INDICATES FEW OR NO CLOUDS BELOW 12,000 FEET WITH NO
      SIGNIFICANT WEATHER AND/OR OBSTRUCTIONS TO VISIBILITY.

OKZ001>007-009>012-014-015-017-051900-
NORTHWEST OKLAHOMA AND THE PANHANDLE
  
CITY           SKY/WX    TMP DP  RH WIND       PRES   REMARKS
GAGE           SUNNY     79  44  28 SE9       30.11F                  
6HR MIN TEMP:  44; 6HR MAX TEMP:  80;                                

GUYMON         SUNNY     80  41  24 S16       30.07F                  
ENID/WOODRING  SUNNY     77  43  29 CALM      30.10F                  
$$

OKZ016-021>023-033>039-044-045-051900-
SOUTHWEST OKLAHOMA
  
CITY           SKY/WX    TMP DP  RH WIND       PRES   REMARKS
LAWTON/REGL    SUNNY     77  41  27 VRB3      30.11F                  
6HR MIN TEMP:  49; 6HR MAX TEMP:  78;                                

LAWTON/FT SILL SUNNY     77  46  33 VRB3      30.10F                  
FREDERICK      SUNNY     80  45  28 VRB3      30.08F                  
CLINTON        SUNNY     78  43  28 VRB5      30.13F                  
HOBART         SUNNY     79  46  31 VRB3      30.12F                  
ALTUS AFB      MOSUNNY   79  46  31 SE8       30.10F                  
$$

OKZ018>020-024>031-051900-
CENTRAL OKLAHOMA
  
CITY           SKY/WX    TMP DP  RH WIND       PRES   REMARKS
OKLAHOMA CITY  SUNNY     77  39  25 MISG      30.11F                  
6HR MIN TEMP:  50; 6HR MAX TEMP:  78;                                

OKC/WILEY POST SUNNY     76  40  27 NW8       30.11F                  
OKC/TINKER AFB SUNNY     74  36  25 N9        30.10F                  
STILLWATER     SUNNY     76  39  26 N8        30.10F                  
GUTHRIE        SUNNY     75  37  25 N6        30.10F                  
$$

OKZ008-013-054>072-051900-
NORTHEAST OKLAHOMA
  
CITY           SKY/WX    TMP DP  RH WIND       PRES   REMARKS
TULSA          SUNNY     75  44  33 VRB5      30.07F                  
6HR MIN TEMP:  48; 6HR MAX TEMP:  75;                                

TULSA/JONES    SUNNY     76  43  30 N7        30.09F                  
PONCA CITY     SUNNY     75  42  30 CALM      30.10F                  
BARTLESVILLE   SUNNY     76  40  27 VRB3      30.10F                  
MUSKOGEE       SUNNY     75  42  30 N10       30.10F                  
$$

OKZ032-040>043-046>053-073>077-051900-
SOUTH CENTRAL/SOUTHEAST OKLAHOMA
  
CITY           SKY/WX    TMP DP  RH WIND       PRES   REMARKS
ARDMORE/DWNTWN SUNNY     73  37  27 NE3       30.10F                  
MCALESTER      MOSUNNY   75  42  30 NW10      30.09F                  
$$

  

Return to Home page


Western Regional Climate Center, wrcc@dri.edu